COSMO-SKYMED 2

Last updated on Mon Jun 22 2026 00:02:51 GMT+0000 (Coordinated Universal Time)

1 32376U 07059A 26172.48171627 .00000278 00000+0 41513-4 0 9990 2 32376 97.8888 356.0172 0001333 89.2119 270.9247 14.82157909 2644
UTC large
Height (km)
Speed (km/s)
/
Latitude / Longitude
Inclination (degrees)
Orbital Period (minutes)
Azimuth
Elevation
Range (km)
Doppler Factor

Next 0 passes for location: London (51.5072 / 0.1276)

No passes found over London.
COSMO-SKYMED 2